Location: Trebic
(49.2170°N, 15.8830°E)
Time: 12:57:18
(UTC+02:00)

Transit 4A - Pass Details

Date: 28 August 2019
Orbit: 865 x 980 km, 66.8° (Epoch: 15 September)

Event Time Altitude Azimuth Distance (km) Brightness Sun altitude
Rises 20:51:43 0° 279° (W) 3,681 12.6 -10.4°
Reaches altitude 10° 20:55:09 10° 297° (WNW) 2,729 12.0 -10.9°
Maximum altitude 20:59:35 19° 341° (NNW) 2,126 10.5 -11.5°
Drops below altitude 10° 21:03:58 10° 25° (NNE) 2,697 10.4 -12.2°
Sets 21:07:21 0° 43° (NE) 3,624 10.9 -12.6°
